User: anonymous   Login
Location: Blanot
(47.1713°N, 4.2340°E)
Time: 08:52:45
(UTC+00:00)
Language:

Gbstr 26 Del rocket - Orbit

View from above orbital plane
View from above orbital plane
View from above satellite
View from above satellite

Ground track
Ground track

The orbit data is extracted from the following two-line orbital elements,

1 25876U 99041E   20265.78850065 -.00000086 +00000-0 +24454-4 0  9993
2 25876 051.7675 290.0380 0530757 265.0450 088.9713 14.04458212082166
Epoch (UTC): 21 September 2020 18:55:26
Eccentricity: 0.0530757
inclination: 51.7675°
perigee height: 493 km
apogee height: 1263 km
right ascension of ascending node: 290.0380°
argument of perigee: 265.0450°
revolutions per day: 14.04458212
mean anomaly at epoch: 88.9713°
orbit number at epoch: 8216

The dashed part of the orbit path shows where the satellite is in the earth's shadow,  

DLR